Retour au catalogue

CHINASAT 2C

ActifCommunicationsGEO
NORAD 41021·PAYLOAD·🇨🇳 China

Lancé Nov 3, 2015 depuis Xichang Satellite Launch Center

Loading…

TLE

FraisSource: Space-Track

Époque: Sep 14, 2026, 14:17 UTC

1 41021U 15063A   26257.59564110 -.00000332  00000-0  00000-0 0  9995
2 41021   0.4989  86.8008 0009663 115.4557 109.2024  1.00271915 39873

Suivez CHINASAT 2C en temps réel avec AllMySat

Download on the App Store